Theta_e
298 297 296 295 294 294 295 297 297 299 301 303 300 304 304 304 304 305 306 309 310 310 310 310 312 315 315 311 314 320 319 319 319 320 316 315 320 323 314 319 320 317 317 317
296 297 296 295 295 294 294 296 297 299 301 302 303 303 304 304 303 304 306 308 310 309 310 309 310 310 310 311 312 312 316 318 320 320 316 314 318 317 317 317 313 317 318 312
296 297 297 296 295 295 294 294 288 295 298 300 301 302 303 304 303 303 303 305 308 309 309 309 310 310 309 308 309 312 313 313 314 316 314 314 311 316 317 319 318 317 316 311
294 296 296 296 295 294 294 294 292 294 296 295 297 300 303 303 303 303 303 303 303 307 309 309 310 309 309 308 309 311 312 313 311 312 313 315 315 315 314 316 316 317 314 315
292 292 295 295 294 294 294 293 291 293 294 295 297 299 299 299 300 301 303 303 303 304 306 308 309 309 308 308 306 308 310 313 311 313 312 313 313 313 313 313 311 313 315 313
292 292 293 293 293 293 294 293 292 293 291 293 294 295 298 301 300 303 301 301 302 304 305 306 307 308 308 308 308 308 309 309 310 314 312 312 312 311 311 312 311 311 311 310
293 293 293 293 293 293 293 293 292 293 289 292 293 294 296 297 296 298 299 299 303 303 303 305 306 306 307 307 307 307 307 307 309 313 312 314 310 309 310 311 311 310 310 310
294 293 293 293 293 293 293 293 292 292 285 292 292 292 293 293 294 296 297 298 299 301 303 304 305 301 305 306 307 306 306 306 310 312 310 309 309 308 308 309 309 308 308 307
295 294 294 295 294 293 293 293 293 293 290 291 292 293 293 293 292 297 299 301 302 302 305 304 306 305 304 305 309 308 307 306 308 307 312 310 307 306 307 307 308 305 306 306
296 296 296 296 295 294 294 294 293 293 293 293 293 291 293 296 296 296 296 300 303 303 304 306 307 305 304 306 308 308 309 309 309 309 311 309 306 306 307 307 306 305 307 306
296 296 296 296 296 295 295 294 293 293 293 293 292 292 294 295 296 295 296 298 303 304 305 305 304 306 303 305 306 307 308 308 309 309 311 310 306 306 307 306 306 306 306 307
296 296 296 297 297 296 296 295 294 293 293 293 293 292 293 294 295 295 297 297 297 296 304 302 302 303 304 302 307 306 310 308 307 308 308 306 306 306 307 306 306 306 306 306
297 297 296 297 297 297 296 295 294 293 293 293 293 293 293 294 295 295 296 296 296 298 300 301 304 304 302 305 304 303 303 304 306 306 306 306 307 307 307 308 307 307 307 307
297 298 297 297 297 297 297 295 294 293 293 293 293 293 293 294 294 293 296 297 297 297 298 299 302 301 302 301 303 304 303 304 306 305 304 304 305 306 308 308 307 306 306 306
297 298 298 297 297 298 297 295 294 293 293 292 294 295 295 295 296 295 294 296 297 298 298 301 301 301 301 297 301 302 302 303 305 305 304 305 305 306 307 307 306 306 306 306
298 297 298 297 297 295 294 294 293 293 293 293 293 295 296 296 297 298 298 298 299 298 299 300 301 303 302 300 300 302 303 304 305 304 305 305 306 306 306 308 307 307 307 307
297 297 296 295 294 294 293 294 293 293 293 294 294 296 299 297 299 298 298 298 298 299 300 299 299 300 300 295 299 300 302 303 304 304 304 304 305 305 306 307 307 307 307 307
295 295 294 294 293 293 294 294 294 293 293 294 295 296 298 299 298 299 299 298 298 298 298 298 299 297 295 297 298 300 301 302 302 302 304 304 304 304 304 305 307 307 307 306
293 293 293 293 293 292 292 293 294 294 294 294 294 298 299 299 298 298 298 297 296 298 297 297 297 295 297 299 298 298 299 298 299 299 302 303 303 302 301 302 305 305 306 306
292 292 293 293 293 293 292 293 293 294 294 294 297 298 300 298 296 296 296 296 296 298 296 297 296 297 298 298 298 298 299 301 302 299 298 299 300 300 299 300 302 306 306 306
292 292 292 293 293 293 293 294 292 294 296 296 297 297 298 298 297 295 295 296 298 297 297 298 297 297 296 300 303 303 303 303 302 302 300 299 299 300 303 302 303 305 305 305
293 294 294 293 294 295 295 296 297 296 296 295 298 298 298 298 299 296 296 297 297 298 296 296 298 296 299 301 301 300 300 301 302 302 300 300 300 302 302 303 303 303 304 304
296 296 296 296 294 293 295 294 297 292 294 296 298 297 299 299 298 297 297 293 293 296 299 298 296 296 301 301 299 300 300 300 300 300 301 302 303 304 304 304 303 303 303 303
297 294 292 291 291 295 295 294 293 294 295 297 299 295 294 297 295 296 293 293 298 298 298 297 292 296 298 296 298 299 298 299 300 301 301 302 303 303 303 302 301 301 301 302
297 295 294 294 295 295 294 294 294 296 296 298 296 295 296 293 293 295 295 297 297 297 295 292 296 297 296 297 299 298 298 299 300 299 299 299 299 300 301 300 299 298 298 298
297 294 290 290 287 285 294 294 294 297 297 298 298 294 290 291 294 296 295 296 294 292 290 296 298 297 297 298 298 296 297 297 298 298 298 297 298 298 298 296 295 295 295 295
296 290 294 293 292 290 294 294 295 298 298 291 294 293 296 293 292 296 295 292 291 292 295 299 299 298 297 296 297 296 296 297 297 296 296 297 295 295 294 294 292 292 291 290
Wind_Speed
24 23 21 18 16 13 12 8 3 8 11 13 5 4 7 13 17 4 9 3 6 6 5 4 6 8 12 3 1 4 3 3 4 4 3 4 14 8 6 3 5 2 1 6
29 28 25 21 19 18 17 6 6 4 16 7 10 8 7 9 8 4 4 4 7 4 6 6 5 4 2 1 3 4 2 3 1 2 6 4 5 5 7 5 3 6 5 5
27 30 28 24 22 20 17 5 0 6 12 12 10 11 13 11 10 14 16 8 5 5 3 8 5 4 3 3 4 8 5 3 2 2 2 1 3 6 6 7 3 5 6 5
31 27 29 27 25 22 21 10 5 4 3 11 10 5 3 7 8 11 17 10 18 10 9 3 5 4 5 1 11 5 4 5 2 5 10 5 4 5 6 10 9 6 4 10
31 30 28 28 26 24 24 12 5 5 4 4 4 7 9 15 18 9 6 16 15 13 18 11 5 1 5 4 6 1 7 4 5 10 16 15 9 9 4 6 5 8 11 17
34 33 31 32 30 30 22 24 16 7 4 2 3 6 4 4 7 8 20 20 16 16 20 21 23 14 6 6 4 2 2 3 3 4 8 7 5 16 14 5 6 8 11 12
39 37 35 33 34 37 31 25 17 8 4 4 6 2 8 9 8 5 12 15 8 27 22 20 19 21 13 9 8 16 5 2 2 2 4 6 5 3 8 13 11 12 15 12
38 39 38 37 36 37 40 27 23 12 3 9 10 12 10 19 22 17 17 29 31 30 20 8 6 3 4 14 15 16 10 3 3 3 4 6 6 5 7 7 9 17 11 7
40 39 39 39 39 39 41 40 32 20 4 7 15 7 14 9 7 9 18 27 28 17 3 5 7 6 5 4 4 12 10 4 8 3 5 5 6 5 6 6 10 8 13 14
39 40 41 41 41 40 43 41 41 30 13 14 9 5 7 10 3 3 5 5 6 24 5 4 5 8 7 5 7 7 5 4 14 11 8 6 7 3 13 6 8 10 10 9
40 39 38 37 39 44 46 43 42 42 18 21 16 27 19 9 6 3 4 9 7 5 7 5 4 3 5 2 3 6 9 6 6 6 7 11 8 5 12 9 6 4 7 14
42 39 39 40 39 39 44 34 45 40 25 9 15 30 30 29 29 24 12 8 10 5 3 3 3 2 2 0 2 1 3 4 1 7 6 4 13 6 16 8 4 7 11 10
34 40 38 37 38 40 48 38 37 35 17 18 28 36 35 27 33 33 21 18 11 12 13 4 2 3 4 5 6 4 4 3 4 4 7 6 12 11 10 9 15 16 16 14
33 34 36 35 36 37 48 43 33 33 6 4 18 20 23 25 33 40 35 33 26 29 19 6 4 3 7 4 3 5 5 8 3 6 6 5 8 12 11 8 7 11 14 16
30 30 28 33 33 37 44 33 28 25 20 4 8 16 26 25 27 33 37 37 32 25 6 5 4 4 4 1 1 3 5 6 5 4 9 8 7 17 13 10 14 16 16 19
28 27 29 30 33 36 30 8 22 23 23 7 3 6 15 18 26 23 27 22 40 27 9 4 5 4 6 4 2 5 18 19 21 6 14 18 10 11 14 15 18 20 19 17
26 24 28 32 32 32 13 7 6 23 23 5 4 4 8 25 28 21 20 19 10 7 7 4 4 3 5 2 2 4 5 13 20 15 12 9 13 9 15 22 22 20 18 16
26 27 26 26 26 27 12 11 4 15 20 6 3 4 7 17 8 5 9 5 5 1 2 3 2 3 2 0 8 9 9 9 8 10 15 11 8 11 12 12 17 21 21 19
26 26 27 25 19 12 14 11 2 19 9 4 5 3 4 2 4 3 3 2 2 6 2 2 1 1 3 6 3 8 12 10 11 15 18 18 18 15 12 13 14 17 20 18
26 27 10 5 12 8 11 5 3 5 8 8 3 3 5 2 4 2 1 3 2 2 2 2 2 3 15 20 19 20 23 23 22 22 15 17 20 22 22 22 19 21 22 20
17 7 5 11 23 11 7 6 6 7 4 7 9 11 3 4 2 2 1 2 2 2 1 2 1 3 4 4 5 10 17 23 28 25 25 21 19 19 15 18 20 19 24 22
14 11 20 25 9 7 5 4 4 4 5 5 3 5 6 3 3 3 1 2 1 1 4 1 2 4 9 5 6 10 13 13 11 12 13 11 16 20 17 12 15 22 21 17
6 4 6 5 2 2 4 5 3 2 3 8 8 3 4 4 4 4 2 2 3 2 0 3 4 3 2 6 9 9 8 4 2 5 8 10 10 8 5 5 10 12 15 16
5 6 3 2 1 3 2 1 1 2 2 13 14 4 2 3 3 2 4 1 2 2 3 5 3 2 4 3 6 9 7 4 3 2 4 6 6 4 5 6 9 13 17 10
2 2 2 2 1 1 2 3 3 3 7 11 6 5 2 1 4 1 3 3 3 4 4 3 2 4 2 5 7 9 9 8 6 5 4 6 9 13 13 11 10 10 12 14
2 3 3 1 2 2 1 0 1 3 9 7 3 2 3 0 4 3 5 6 6 4 3 3 6 4 1 5 5 6 8 10 12 11 11 10 8 6 7 10 10 9 7 7
2 1 1 1 1 3 0 1 1 3 3 2 2 3 4 2 2 2 4 5 4 4 4 5 6 3 2 1 5 6 4 3 3 2 1 3 4 5 5 6 6 6 7 8
Wind_Direction
230 232 228 225 220 214 213 195 219 226 218 210 242 225 217 242 270 266 230 255 260 246 286 265 190 224 231 23 206 191 235 137 210 252 307 191 206 236 138 189 178 220 120 270
233 228 224 223 215 212 205 206 235 210 203 233 227 229 259 249 246 262 259 252 217 6 325 313 217 231 358 72 8 11 329 184 279 320 345 354 249 229 159 148 140 184 163 254
233 228 224 221 215 211 200 185 272 235 228 249 240 251 239 235 232 228 252 289 251 266 237 263 306 342 30 37 75 135 81 305 151 268 2 72 186 253 272 215 187 145 218 291
235 229 226 221 212 208 196 194 221 209 219 240 246 282 266 252 226 217 211 245 249 263 259 275 256 317 293 227 135 95 143 233 174 283 304 295 242 226 186 199 215 198 210 223
237 234 223 212 208 207 200 190 184 192 276 287 352 266 259 253 268 228 244 239 233 233 248 236 258 26 350 18 9 288 167 240 225 247 241 249 282 269 207 228 208 232 253 264
231 229 224 220 216 206 202 210 215 211 255 202 198 220 286 295 16 265 245 236 259 252 238 243 251 237 199 273 303 304 285 175 183 248 222 197 253 237 217 205 199 194 219 236
229 227 224 219 214 213 210 207 198 183 256 190 219 289 264 270 291 279 292 298 270 251 271 264 261 259 241 233 256 273 180 210 235 200 140 226 235 213 197 213 238 220 235 236
228 225 223 221 217 213 213 207 198 191 222 215 239 248 256 279 279 280 283 282 274 274 263 252 252 291 281 238 232 228 217 186 246 244 217 313 282 177 166 172 252 225 224 221
225 223 221 220 219 215 215 215 215 208 154 230 228 226 232 250 258 261 253 267 277 231 247 181 200 207 193 225 193 209 200 204 211 155 255 229 277 233 152 110 262 170 198 225
221 222 223 220 217 215 214 217 219 213 227 229 215 195 225 232 241 293 302 325 278 198 210 218 198 225 181 213 191 172 183 203 222 225 240 265 235 181 139 138 246 215 217 203
219 219 219 217 217 215 210 215 215 211 223 238 228 236 236 224 209 218 304 327 223 198 201 187 183 212 212 209 212 181 186 194 210 218 235 256 180 133 180 211 183 211 199 202
215 216 219 221 218 219 215 209 214 213 214 234 244 248 243 237 245 249 229 233 319 294 250 193 151 193 134 100 238 63 239 224 282 206 208 199 205 196 222 249 207 224 225 211
216 218 214 218 215 216 213 205 197 195 215 245 254 250 244 238 244 242 244 258 244 238 262 312 175 181 140 177 213 181 239 177 211 216 229 229 220 219 249 254 244 235 233 216
216 218 214 213 213 217 206 197 186 199 169 232 267 266 257 253 251 241 242 247 241 259 279 285 229 174 183 202 204 200 200 149 138 290 303 295 236 218 228 230 222 215 209 197
203 208 213 212 209 208 204 191 195 203 193 226 270 274 256 262 258 237 236 241 245 246 241 224 227 166 127 236 15 230 188 172 184 206 225 213 229 211 200 197 187 179 164 166
197 198 202 194 196 171 167 160 208 213 220 256 270 265 272 279 233 210 215 250 260 230 204 227 214 165 152 159 202 249 224 220 230 228 251 235 236 222 213 202 197 193 196 204
167 158 157 157 153 163 143 136 171 203 204 239 279 267 292 216 197 219 231 248 267 181 180 232 154 128 139 102 202 242 271 243 240 245 270 254 241 237 235 223 215 210 206 213
126 132 137 144 158 165 135 112 149 178 183 233 266 277 301 175 158 151 198 218 221 128 181 254 86 79 76 280 248 262 254 274 275 255 233 244 257 255 268 260 244 232 224 217
134 135 138 142 161 166 195 209 186 161 198 216 218 261 335 98 102 135 85 305 21 1 59 43 60 23 215 225 240 277 294 277 277 283 263 249 254 266 277 295 271 248 226 213
140 138 131 150 160 154 188 199 221 222 220 230 273 226 210 190 62 44 108 18 55 339 338 55 57 269 260 261 267 284 292 290 282 276 261 259 262 267 271 262 259 246 234 230
150 155 158 136 155 141 179 193 180 210 226 213 222 228 287 163 127 153 42 117 94 140 274 124 285 282 266 246 280 279 279 274 277 260 251 267 285 284 276 258 244 239 236 229
182 153 138 141 173 172 194 203 184 231 219 174 139 198 175 140 124 95 123 101 164 140 136 123 253 245 211 244 306 324 322 316 281 234 236 252 260 251 261 260 254 244 235 221
120 157 138 170 155 116 195 201 220 236 179 163 164 161 129 129 106 90 121 90 211 139 249 246 234 277 297 324 338 348 13 17 160 197 211 226 234 253 257 283 250 230 207 187
184 167 123 166 233 242 216 248 258 350 291 161 140 99 123 98 75 118 100 271 144 210 234 241 255 248 232 275 14 11 44 71 91 170 215 213 203 200 155 166 158 179 169 183
102 87 127 123 94 224 311 337 326 324 159 149 115 81 98 58 96 135 116 166 211 222 235 237 244 180 178 58 51 52 58 58 66 78 106 122 130 134 131 137 148 148 153 160
86 70 76 177 110 294 108 275 285 56 159 153 90 115 69 286 127 139 202 168 212 239 222 227 178 173 106 76 102 97 93 93 91 91 94 102 112 122 132 144 146 151 161 171
101 130 98 143 267 251 317 78 3 74 173 161 112 97 196 93 77 224 177 202 216 225 233 189 170 158 61 112 157 152 157 150 124 68 113 167 158 160 166 168 161 167 166 169